Location: Des Moines
(33.9320°N, 117.9678°W)
Time: 14:37:15
(UTC+00:00)

Daily predictions for brighter satellites

Satellite Brightness Start Highest point End
(mag) Time Altitude Azimuth Time Altitude Azimuth Time Altitude Azimuth
ATLAS 3B CENTAUR R/B 4.3 12:06:13 34° SSW 12:06:27 34° SSW 12:18:48 10° SE
COSMOS 2428 4.0 12:20:32 31° NNE 12:20:32 31° NNE 12:23:21 10° NNE
CZ-4B R/B 4.4 12:22:20 10° ESE 12:23:28 16° E 12:23:28 16° E
CZ-2C R/B 2.9 12:34:12 32° ESE 12:34:12 32° ESE 12:36:45 10° E
OAO 2 Rocket 3.4 12:43:18 68° ENE 12:43:18 68° ENE 12:47:37 10° E
ADEOS 4.0 12:38:02 10° NNE 12:49:25 - SSW 12:41:48 49° N
Meteor 2-10 4.2 12:38:28 10° S 12:44:08 81° E 12:49:42 10° N
Cosmos 1892 Rocket 4.1 12:49:56 32° NNE 12:51:43 57° E 12:56:02 10° SSE
IRIDIUM 106 4.1 12:47:39 10° S 12:52:52 82° W 12:58:06 10° N
SL-24 R/B 4.1 12:50:05 10° SSE 12:53:23 64° SE 12:53:23 64° SE
Meteor 1-24 Rocket 3.7 12:59:02 57° W 12:59:02 57° W 13:04:36 10° S
Cosmos 1763 Rocket 3.8 13:01:32 46° NNW 13:01:32 46° NNW 13:05:35 10° N
Cosmos 1844 4.1 13:03:00 42° WSW 13:03:00 42° WSW 13:07:48 10° S
COSMO-SKYMED 1 3.0 12:58:07 10° SSE 13:02:23 61° ENE 13:05:40 17° N
CZ-4B R/B 2.8 13:02:40 10° NNE 13:06:17 72° ESE 13:10:00 10° S
Cosmos 841 Rocket 3.5 13:01:40 10° S 13:06:47 76° ESE 13:11:55 10° NNE
SJ 16-02 2.1 13:08:09 36° SSW 13:08:09 36° SSW 13:11:04 10° S
CSL-04 DEB 4.5 13:03:01 10° S 13:07:17 64° WSW 13:07:17 64° WSW
ATLAS 5 CENTAUR R/B 3.6 13:06:55 16° NNE 13:08:24 23° ENE 13:12:58 10° ESE
FALCON 9 R/B 2.5 13:11:05 29° WSW 13:12:50 35° SSW 13:15:38 10° SE
CZ-3A R/B 4.4 13:06:30 24° WSW 13:13:01 37° SSW 13:20:52 10° SE
Lacrosse 4 Rocket 3.3 13:09:28 10° S 13:13:07 31° ESE 13:16:52 10° NE
Cosmos 1898 Rocket 3.6 13:09:45 16° NNW 13:13:59 75° ENE 13:19:08 10° SSE
H-2A R/B 3.0 13:10:57 10° NNE 13:14:38 64° E 13:18:19 10° S
Gbstr 26 Del rocket 4.3 13:09:32 18° SW 13:15:10 87° NW 13:23:18 10° NE
USA 267 4.5 13:10:59 10° S 13:15:40 21° WSW 13:15:40 21° WSW
Cosmos 1544 Rocket 3.4 13:15:00 10° S 13:19:19 85° W 13:23:38 10° N
GPS 2-04 Rocket1 3.0 13:19:53 48° WSW 13:20:38 57° SSW 13:24:43 10° ESE
Cosmos 1570 Rocket 4.0 13:16:11 10° SSW 13:21:23 85° ESE 13:26:38 10° NNE
Cosmos 1844 Rocket 4.2 13:23:23 18° SW 13:23:23 18° SW 13:25:38 10° SSW
SL-16 R/B 3.8 13:19:56 10° SSE 13:25:01 36° ESE 13:30:08 10° NE
Cosmos 1400 Rocket 3.7 13:21:12 10° S 13:25:07 51° E 13:29:06 10° NNE
SKYMED 3 4.5 13:22:03 10° S 13:26:20 68° WSW 13:29:56 15° NNW
Atlas Centaur 2 3.3 13:21:43 22° WSW 13:27:09 66° S 13:35:37 10° E
SL-4 R/B 1.8 13:28:29 24° SW 13:30:36 81° SE 13:34:33 10° NE
NOSS 0 Rocket 4.1 13:25:55 10° SW 13:31:51 48° WNW 13:37:49 10° N
Cosmos 2278 Rocket 2.5 13:27:03 10° NNW 13:32:42 67° ENE 13:38:19 10° SSE
Meteor 1-21 Rocket 4.5 13:27:11 10° N 13:32:56 76° E 13:38:46 10° SSE
YAOGAN 6 2.8 13:30:27 10° NNE 13:34:09 72° E 13:37:49 10° S
Okean 1-7 Rocket 3.5 13:32:20 10° NNW 13:36:50 66° W 13:41:15 10° S
Cosmos 2237 Rocket 2.2 13:31:44 10° SW 13:37:14 54° WNW 13:42:49 10° N
CENTAUR R/B 4.0 13:33:04 10° S 13:38:02 36° ESE 13:43:43 10° NE
PSLV R/B 4.1 13:34:58 10° NNE 13:38:56 71° E 13:42:59 10° S
Cosmos 2208 Rocket 4.0 13:36:14 10° SSW 13:41:41 77° WNW 13:47:08 10° NNE
Cosmos 2219 Rocket 3.9 13:44:04 13° NW 13:44:04 13° NW 13:45:28 10° NNW
USA 276 3.1 13:42:07 28° WSW 13:42:31 29° SW 13:45:16 10° SSE
Cosmos 2333 Rocket 4.1 13:44:24 11° NNW 13:44:24 11° NNW 13:45:08 10° NNW
Cosmos 1626 Rocket 3.8 13:39:29 10° N 13:43:58 73° E 13:48:24 10° SSE
Cosmos 1814 Rocket 3.9 13:39:39 10° SSW 13:44:44 64° WNW 13:49:50 10° N
Cosmos 1455 Rocket 4.0 13:42:39 10° SW 13:46:13 24° WNW 13:49:47 10° NNW
ERS-2 2.3 13:44:13 10° S 13:47:44 47° W 13:50:58 12° NNW
Cosmos 1689 Rocket 1.8 13:45:12 10° S 13:48:05 77° WSW 13:51:00 10° NNW
Cosmos 1937 Rocket 3.4 13:42:54 10° NNW 13:48:09 72° WSW 13:53:20 10° S
SKYMED 2 4.2 13:46:30 10° SSW 13:50:26 34° W 13:54:14 11° NNW
GEOS 3 Rocket 3.7 13:45:38 10° SE 13:50:57 85° ENE 13:56:23 10° NNW
Cosmos 1464 Rocket 4.5 13:45:32 10° SW 13:51:01 34° WNW 13:56:32 10° NNW
USA 238 DEB 4.0 13:45:42 10° SSW 13:52:07 69° ESE 13:58:48 10° NE
USA 238 4.0 13:45:50 10° SSW 13:52:15 68° ESE 13:58:55 10° NE
ATLAS CENTAUR R/B 1.0 13:48:42 10° SSW 13:52:27 88° SE 13:56:08 10° NNE
Cosmos 1953 3.0 13:50:01 10° SW 13:53:33 31° W 13:57:07 10° NNW
Envisat 2.9 13:48:32 10° N 13:53:36 69° WNW 13:58:37 10° SSW
Cosmos 1908 3.4 13:53:00 10° SSW 13:56:37 44° W 14:00:17 10° N
CZ-4B R/B 3.1 13:54:35 10° SW 13:56:34 17° WSW 13:56:34 17° WSW
H-2A R/B 3.1 13:54:03 10° NNE 13:58:32 66° ESE 14:02:59 10° S
NOAA 6 4.0 13:54:51 10° NNE 14:00:04 85° WNW 14:05:15 10° SSW
COSMOS 2428 4.4 14:02:38 12° NW 14:02:38 12° NW 14:04:50 10° NNW
Cosmos 44 Rocket 3.4 14:01:40 10° NNW 14:06:54 80° WSW 14:12:03 10° SSE
USA 307 2.8 14:04:52 10° SW 14:09:03 64° NW 14:13:16 10° NE
MOS 1 Rocket 4.1 14:06:32 10° SSW 14:11:10 34° W 14:15:35 10° NNW
CZ-2C R/B 1.2 14:08:31 11° W 14:12:29 83° N 14:16:22 10° E
Okean O Rocket 2.2 14:08:35 10° NNE 14:12:55 63° E 14:17:12 10° S
Cosmos 1315 Rocket 3.4 14:09:52 10° S 14:13:44 61° E 14:17:36 10° NNE
OAO 1 Rocket 4.5 14:10:17 11° W 14:15:21 79° N 14:20:41 10° E
CZ-3 Stage 3 1.0 14:14:56 10° WSW 14:17:38 37° S 14:19:15 10° ESE
USA 308 3.0 14:13:41 10° WSW 14:17:48 53° NW 14:21:57 10° NE
USA 305 3.1 14:14:07 10° WSW 14:18:14 50° NW 14:22:21 10° NNE
Cosmos 1602 Rocket 3.8 14:20:00 10° NNW 14:24:19 51° W 14:28:38 10° SSW
MOS 1-B 4.4 14:19:21 10° N 14:25:02 62° WNW 14:30:42 10° SSW
Cosmos 1092 Rocket 4.0 14:19:04 10° NNW 14:25:08 64° W 14:31:14 10° S
AQUARIUS 4.1 14:22:13 10° N 14:26:41 71° WNW 14:31:08 10° SSW
OAO 2 Rocket 3.3 14:22:37 10° W 14:27:33 89° NNE 14:32:29 10° E
SL-8 R/B 4.0 14:23:15 10° NW 14:28:04 67° NE 14:32:51 10° ESE
SMAP 3.1 14:23:37 10° N 14:28:12 60° WNW 14:32:46 10° SSW
Spot 2 4.4 14:24:52 10° N 14:28:38 38° WNW 14:32:25 10° SW
Cosmos 2279 Rocket 4.2 14:23:16 10° S 14:29:29 84° E 14:35:45 10° N
USA 306 3.4 14:26:08 10° WSW 14:30:08 39° NW 14:34:08 10° NNE
